This is the latest recevied weather packets stored in our database for station/object N5YHM-13. If no packets are shown the sender has not sent any weather packets the latest 10 day(s).
| Time | Temp. | Humidity | Pressure | Rain* | Wind** | Luminosity | Snow |
|---|---|---|---|---|---|---|---|
| 1777561951 | 20° C | 99% | 1014.9 hPa | 19.81 mm | - | 9 W/m² | - |
| 1777561648 | 20° C | 99% | 1015.1 hPa | 19.81 mm | - | 10 W/m² | - |
| 1777561344 | 20° C | 99% | 1015 hPa | 19.81 mm | - | 13 W/m² | - |
| 1777561040 | 20.56° C | 99% | 1014.9 hPa | 19.81 mm | - | 10 W/m² | - |
| 1777560736 | 20.56° C | 99% | 1014.9 hPa | 19.81 mm | - | 17 W/m² | - |
| 1777560432 | 20° C | 99% | 1014.9 hPa | 19.81 mm | - | 11 W/m² | - |
| 1777560130 | 20° C | 99% | 1015 hPa | 19.81 mm | - | 11 W/m² | - |
| 1777559827 | 20° C | 99% | 1015 hPa | 19.81 mm | - | 9 W/m² | - |
| 1777559523 | 20° C | 99% | 1015 hPa | 19.81 mm | - | 7 W/m² | - |
| 1777559220 | 20° C | 99% | 1015 hPa | 19.81 mm | - | 7 W/m² | - |
| 1777558914 | 20° C | 99% | 1014.8 hPa | 19.81 mm | - | 7 W/m² | - |
| 1777558610 | 20° C | 99% | 1014.8 hPa | 19.81 mm | - | 9 W/m² | - |
| 1777558306 | 20° C | 99% | 1014.8 hPa | 19.81 mm | - | 7 W/m² | - |
| 1777558003 | 20° C | 99% | 1014.7 hPa | 19.81 mm | - | 4 W/m² | - |
| 1777557699 | 20° C | 99% | 1014.7 hPa | 19.81 mm | - | 6 W/m² | - |
| 1777557396 | 20° C | 99% | 1014.5 hPa | 19.81 mm | - | 8 W/m² | - |
| 1777557087 | 20° C | 99% | 1014.4 hPa | 19.81 mm | - | 5 W/m² | - |
| 1777556782 | 20.56° C | 99% | 1014.7 hPa | 19.81 mm | - | 4 W/m² | - |
| 1777556480 | 20.56° C | 99% | 1014.4 hPa | 19.81 mm | - | 3 W/m² | - |
| 1777556179 | 20° C | 99% | 1014.4 hPa | 19.81 mm | - | 3 W/m² | - |
| 1777555875 | 20° C | 99% | 1014.5 hPa | 19.81 mm | - | 4 W/m² | - |
| 1777555571 | 20° C | 99% | 1014.7 hPa | 19.81 mm | - | 4 W/m² | - |
| 1777555268 | 20.56° C | 99% | 1014.3 hPa | 19.81 mm | - | 4 W/m² | - |
| 1777554964 | 20° C | 99% | 1014.4 hPa | 19.81 mm | - | 4 W/m² | - |
| 1777554661 | 20° C | 99% | 1014.3 hPa | 19.81 mm | - | 3 W/m² | - |
* Rain latest hour (hover to see other rain measurements)
** Current wind speed in m/s (hover to see current wind gust speed)